Year,Month,Day,Hour,Minute,Value (Times are PST for temperature in C)
2017,04,09,00,00,5.20
2017,04,09,00,01,5.20
2017,04,09,00,02,5.20
2017,04,09,00,03,5.20
2017,04,09,00,04,5.20
2017,04,09,00,05,5.20
2017,04,09,00,06,5.20
2017,04,09,00,07,5.20
2017,04,09,00,08,5.20
2017,04,09,00,09,5.20
2017,04,09,00,10,5.20
2017,04,09,00,11,5.20
2017,04,09,00,12,5.20
2017,04,09,00,13,5.10
2017,04,09,00,14,5.20
2017,04,09,00,15,5.20
2017,04,09,00,16,5.10
2017,04,09,00,17,5.20
2017,04,09,00,18,5.20
2017,04,09,00,19,5.20
2017,04,09,00,20,5.20
2017,04,09,00,21,5.20
2017,04,09,00,22,5.20
2017,04,09,00,23,5.20
2017,04,09,00,24,5.20
2017,04,09,00,25,5.10
2017,04,09,00,26,5.10
2017,04,09,00,27,5.10
2017,04,09,00,28,5.10
2017,04,09,00,29,5.10
2017,04,09,00,30,5.10
2017,04,09,00,31,5.00
2017,04,09,00,32,5.00
2017,04,09,00,33,5.00
2017,04,09,00,34,5.00
2017,04,09,00,35,5.00
2017,04,09,00,36,5.00
2017,04,09,00,37,5.00
2017,04,09,00,38,5.00
2017,04,09,00,39,4.90
2017,04,09,00,40,4.90
2017,04,09,00,41,4.90
2017,04,09,00,42,4.80
2017,04,09,00,43,4.80
2017,04,09,00,44,4.80
2017,04,09,00,45,4.80
2017,04,09,00,46,4.70
2017,04,09,00,47,4.70
2017,04,09,00,48,4.70
2017,04,09,00,49,4.60
2017,04,09,00,50,4.60
2017,04,09,00,51,4.50
2017,04,09,00,52,4.50
2017,04,09,00,53,4.40
2017,04,09,00,54,4.40
2017,04,09,00,55,4.30
2017,04,09,00,56,4.30
2017,04,09,00,57,4.30
2017,04,09,00,58,4.20
2017,04,09,00,59,4.20
2017,04,09,01,00,4.10
2017,04,09,01,01,4.10
2017,04,09,01,02,4.10
2017,04,09,01,03,4.00
2017,04,09,01,04,4.00
2017,04,09,01,05,4.00
2017,04,09,01,06,3.90
2017,04,09,01,07,3.90
2017,04,09,01,08,3.90
2017,04,09,01,09,3.90
2017,04,09,01,10,3.90
2017,04,09,01,11,3.90
2017,04,09,01,12,3.80
2017,04,09,01,13,3.80
2017,04,09,01,14,3.80
2017,04,09,01,15,3.80
2017,04,09,01,16,3.80
2017,04,09,01,17,3.80
2017,04,09,01,18,3.80
2017,04,09,01,19,3.80
2017,04,09,01,20,3.80
2017,04,09,01,21,3.80
2017,04,09,01,22,3.80
2017,04,09,01,23,3.80
2017,04,09,01,24,3.80
2017,04,09,01,25,3.80
2017,04,09,01,26,3.70
2017,04,09,01,27,3.70
2017,04,09,01,28,3.70
2017,04,09,01,29,3.70
2017,04,09,01,30,3.70
2017,04,09,01,31,3.80
2017,04,09,01,32,3.80
2017,04,09,01,33,3.80
2017,04,09,01,34,3.90
2017,04,09,01,35,3.90
2017,04,09,01,36,3.90
2017,04,09,01,37,3.90
2017,04,09,01,38,3.90
2017,04,09,01,39,3.90
2017,04,09,01,40,4.00
2017,04,09,01,41,4.00
2017,04,09,01,42,4.00
2017,04,09,01,43,4.10
2017,04,09,01,44,4.10
2017,04,09,01,45,4.10
2017,04,09,01,46,4.20
2017,04,09,01,47,4.20
2017,04,09,01,48,4.20
2017,04,09,01,49,4.30
2017,04,09,01,50,4.30
2017,04,09,01,51,4.40
2017,04,09,01,52,4.50
2017,04,09,01,53,4.50
2017,04,09,01,54,4.60
2017,04,09,01,55,4.60
2017,04,09,01,56,4.60
2017,04,09,01,57,4.60
2017,04,09,01,58,4.70
2017,04,09,01,59,4.70
2017,04,09,02,00,4.70
2017,04,09,02,01,4.70
2017,04,09,02,02,4.70
2017,04,09,02,03,4.70
2017,04,09,02,04,4.70
2017,04,09,02,05,4.80
2017,04,09,02,06,4.80
2017,04,09,02,07,4.80
2017,04,09,02,08,4.80
2017,04,09,02,09,4.80
2017,04,09,02,10,4.80
2017,04,09,02,11,4.80
2017,04,09,02,12,4.90
2017,04,09,02,13,4.80
2017,04,09,02,14,4.80
2017,04,09,02,15,4.80
2017,04,09,02,16,4.80
2017,04,09,02,17,4.80
2017,04,09,02,18,4.80
2017,04,09,02,19,4.70
2017,04,09,02,20,4.70
2017,04,09,02,21,4.70
2017,04,09,02,22,4.60
2017,04,09,02,23,4.60
2017,04,09,02,24,4.50
2017,04,09,02,25,4.50
2017,04,09,02,26,4.50
2017,04,09,02,27,4.40
2017,04,09,02,28,4.40
2017,04,09,02,29,4.40
2017,04,09,02,30,4.40
2017,04,09,02,31,4.30
2017,04,09,02,32,4.30
2017,04,09,02,33,4.20
2017,04,09,02,34,4.20
2017,04,09,02,35,4.10
2017,04,09,02,36,4.10
2017,04,09,02,37,4.00
2017,04,09,02,38,4.00
2017,04,09,02,39,3.90
2017,04,09,02,40,3.90
2017,04,09,02,41,3.90
2017,04,09,02,42,3.80
2017,04,09,02,43,3.80
2017,04,09,02,44,3.80
2017,04,09,02,45,3.70
2017,04,09,02,46,3.70
2017,04,09,02,47,3.60
2017,04,09,02,48,3.60
2017,04,09,02,49,3.60
2017,04,09,02,50,3.50
2017,04,09,02,51,3.50
2017,04,09,02,52,3.40
2017,04,09,02,53,3.40
2017,04,09,02,54,3.40
2017,04,09,02,55,3.30
2017,04,09,02,56,3.30
2017,04,09,02,57,3.30
2017,04,09,02,58,3.30
2017,04,09,02,59,3.20
2017,04,09,03,00,3.20
2017,04,09,03,01,3.20
2017,04,09,03,02,3.20
2017,04,09,03,03,3.10
2017,04,09,03,04,3.10
2017,04,09,03,05,3.10
2017,04,09,03,06,3.10
2017,04,09,03,07,3.00
2017,04,09,03,08,3.00
2017,04,09,03,09,3.00
2017,04,09,03,10,3.00
2017,04,09,03,11,3.00
2017,04,09,03,12,2.90
2017,04,09,03,13,2.90
2017,04,09,03,14,2.90
2017,04,09,03,15,2.90
2017,04,09,03,16,2.90
2017,04,09,03,17,2.90
2017,04,09,03,18,2.90
2017,04,09,03,19,2.80
2017,04,09,03,20,2.80
2017,04,09,03,21,2.80
2017,04,09,03,22,2.80
2017,04,09,03,23,2.80
2017,04,09,03,24,2.80
2017,04,09,03,25,2.80
2017,04,09,03,26,2.80
2017,04,09,03,27,2.70
2017,04,09,03,28,2.70
2017,04,09,03,29,2.70
2017,04,09,03,30,2.70
2017,04,09,03,31,2.70
2017,04,09,03,32,2.70
2017,04,09,03,33,2.60
2017,04,09,03,34,2.60
2017,04,09,03,35,2.60
2017,04,09,03,36,2.60
2017,04,09,03,37,2.60
2017,04,09,03,38,2.50
2017,04,09,03,39,2.50
2017,04,09,03,40,2.40
2017,04,09,03,41,2.40
2017,04,09,03,42,2.40
2017,04,09,03,43,2.40
2017,04,09,03,44,2.30
2017,04,09,03,45,2.30
2017,04,09,03,46,2.30
2017,04,09,03,47,2.30
2017,04,09,03,48,2.30
2017,04,09,03,49,2.20
2017,04,09,03,50,2.20
2017,04,09,03,51,2.20
2017,04,09,03,52,2.20
2017,04,09,03,53,2.20
2017,04,09,03,54,2.20
2017,04,09,03,55,2.10
2017,04,09,03,56,2.10
2017,04,09,03,57,2.10
2017,04,09,03,58,2.10
2017,04,09,03,59,2.10
2017,04,09,04,00,2.10
2017,04,09,04,01,2.10
2017,04,09,04,02,2.10
2017,04,09,04,03,2.10
2017,04,09,04,04,2.10
2017,04,09,04,05,2.10
2017,04,09,04,06,2.10
2017,04,09,04,07,2.10
2017,04,09,04,08,2.10
2017,04,09,04,09,2.10
2017,04,09,04,10,2.10
2017,04,09,04,11,2.10
2017,04,09,04,12,2.10
2017,04,09,04,13,2.10
2017,04,09,04,14,2.10
2017,04,09,04,15,2.10
2017,04,09,04,16,2.10
2017,04,09,04,17,2.10
2017,04,09,04,18,2.10
2017,04,09,04,19,2.00
2017,04,09,04,20,2.00
2017,04,09,04,21,2.10
2017,04,09,04,22,2.10
2017,04,09,04,23,2.10
2017,04,09,04,24,2.10
2017,04,09,04,25,2.10
2017,04,09,04,26,2.10
2017,04,09,04,27,2.10
2017,04,09,04,28,2.10
2017,04,09,04,29,2.10
2017,04,09,04,30,2.10
2017,04,09,04,31,2.10
2017,04,09,04,32,2.20
2017,04,09,04,33,2.20
2017,04,09,04,34,2.20
2017,04,09,04,35,2.20
2017,04,09,04,36,2.20
2017,04,09,04,37,2.20
2017,04,09,04,38,2.20
2017,04,09,04,39,2.20
2017,04,09,04,40,2.20
2017,04,09,04,41,2.20
2017,04,09,04,42,2.20
2017,04,09,04,43,2.20
2017,04,09,04,44,2.20
2017,04,09,04,45,2.30
2017,04,09,04,46,2.30
2017,04,09,04,47,2.30
2017,04,09,04,48,2.30
2017,04,09,04,49,2.30
2017,04,09,04,50,2.30
2017,04,09,04,51,2.30
2017,04,09,04,52,2.30
2017,04,09,04,53,2.30
2017,04,09,04,54,2.30
2017,04,09,04,55,2.30
2017,04,09,04,56,2.30
2017,04,09,04,57,2.30
2017,04,09,04,58,2.40
2017,04,09,04,59,2.40
2017,04,09,05,00,2.40
2017,04,09,05,01,2.40
2017,04,09,05,02,2.40
2017,04,09,05,03,2.40
2017,04,09,05,04,2.40
2017,04,09,05,05,2.40
2017,04,09,05,06,2.40
2017,04,09,05,07,2.40
2017,04,09,05,08,2.50
2017,04,09,05,09,2.50
2017,04,09,05,10,2.50
2017,04,09,05,11,2.50
2017,04,09,05,12,2.50
2017,04,09,05,13,2.50
2017,04,09,05,14,2.60
2017,04,09,05,15,2.60
2017,04,09,05,16,2.60
2017,04,09,05,17,2.60
2017,04,09,05,18,2.60
2017,04,09,05,19,2.60
2017,04,09,05,20,2.60
2017,04,09,05,21,2.60
2017,04,09,05,22,2.60
2017,04,09,05,23,2.60
2017,04,09,05,24,2.60
2017,04,09,05,25,2.70
2017,04,09,05,26,2.70
2017,04,09,05,27,2.70
2017,04,09,05,28,2.70
2017,04,09,05,29,2.70
2017,04,09,05,30,2.70
2017,04,09,05,31,2.70
2017,04,09,05,32,2.70
2017,04,09,05,33,2.70
2017,04,09,05,34,2.70
2017,04,09,05,35,2.70
2017,04,09,05,36,2.70
2017,04,09,05,37,2.70
2017,04,09,05,38,2.70
2017,04,09,05,39,2.70
2017,04,09,05,40,2.70
2017,04,09,05,41,2.80
2017,04,09,05,42,2.80
2017,04,09,05,43,2.80
2017,04,09,05,44,2.80
2017,04,09,05,45,2.80
2017,04,09,05,46,2.80
2017,04,09,05,47,2.80
2017,04,09,05,48,2.80
2017,04,09,05,49,2.80
2017,04,09,05,50,2.80
2017,04,09,05,51,2.80
2017,04,09,05,52,2.80
2017,04,09,05,53,2.80
2017,04,09,05,54,2.80
2017,04,09,05,55,2.80
2017,04,09,05,56,2.80
2017,04,09,05,57,2.80
2017,04,09,05,58,2.80
2017,04,09,05,59,2.80
2017,04,09,06,00,2.80
2017,04,09,06,01,2.80
2017,04,09,06,02,2.80
2017,04,09,06,03,2.80
2017,04,09,06,04,2.80
2017,04,09,06,05,2.80
2017,04,09,06,06,2.80
2017,04,09,06,07,2.80
2017,04,09,06,08,2.80
2017,04,09,06,09,2.80
2017,04,09,06,10,2.80
2017,04,09,06,11,2.80
2017,04,09,06,12,2.80
2017,04,09,06,13,2.80
2017,04,09,06,14,2.80
2017,04,09,06,15,2.80
2017,04,09,06,16,2.80
2017,04,09,06,17,2.70
2017,04,09,06,18,2.70
2017,04,09,06,19,2.70
2017,04,09,06,20,2.70
2017,04,09,06,21,2.70
2017,04,09,06,22,2.70
2017,04,09,06,23,2.70
2017,04,09,06,24,2.70
2017,04,09,06,25,2.70
2017,04,09,06,26,2.70
2017,04,09,06,27,2.70
2017,04,09,06,28,2.70
2017,04,09,06,29,2.70
2017,04,09,06,30,2.70
2017,04,09,06,31,2.70
2017,04,09,06,32,2.70
2017,04,09,06,33,2.70
2017,04,09,06,34,2.70
2017,04,09,06,35,2.70
2017,04,09,06,36,2.70
2017,04,09,06,37,2.70
2017,04,09,06,38,2.70
2017,04,09,06,39,2.70
2017,04,09,06,40,2.70
2017,04,09,06,41,2.80
2017,04,09,06,42,2.70
2017,04,09,06,43,2.80
2017,04,09,06,44,2.70
2017,04,09,06,45,2.80
2017,04,09,06,46,2.80
2017,04,09,06,47,2.80
2017,04,09,06,48,2.80
2017,04,09,06,49,2.80
2017,04,09,06,50,2.80
2017,04,09,06,51,2.80
2017,04,09,06,52,2.80
2017,04,09,06,53,2.80
2017,04,09,06,54,2.80
2017,04,09,06,55,2.80
2017,04,09,06,56,2.80
2017,04,09,06,57,2.80
2017,04,09,06,58,2.80
2017,04,09,06,59,2.80
2017,04,09,07,00,2.80
2017,04,09,07,01,2.80
2017,04,09,07,02,2.80
2017,04,09,07,03,2.80
2017,04,09,07,04,2.80
2017,04,09,07,05,2.80
2017,04,09,07,06,2.80
2017,04,09,07,07,2.80
2017,04,09,07,08,2.80
2017,04,09,07,09,2.80
2017,04,09,07,10,2.80
2017,04,09,07,11,2.80
2017,04,09,07,12,2.80
2017,04,09,07,13,2.80
2017,04,09,07,14,2.80
2017,04,09,07,15,2.80
2017,04,09,07,16,2.80
2017,04,09,07,17,2.80
2017,04,09,07,18,2.80
2017,04,09,07,19,2.80
2017,04,09,07,20,2.80
2017,04,09,07,21,2.80
2017,04,09,07,22,2.90
2017,04,09,07,23,2.90
2017,04,09,07,24,2.90
2017,04,09,07,25,2.90
2017,04,09,07,26,2.90
2017,04,09,07,27,2.90
2017,04,09,07,28,2.90
2017,04,09,07,29,2.90
2017,04,09,07,30,2.90
2017,04,09,07,31,2.90
2017,04,09,07,32,2.90
2017,04,09,07,33,2.90
2017,04,09,07,34,2.90
2017,04,09,07,35,3.00
2017,04,09,07,36,3.00
2017,04,09,07,37,3.00
2017,04,09,07,38,3.00
2017,04,09,07,39,3.00
2017,04,09,07,40,3.00
2017,04,09,07,41,3.00
2017,04,09,07,42,3.10
2017,04,09,07,43,3.10
2017,04,09,07,44,3.10
2017,04,09,07,45,3.10
2017,04,09,07,46,3.10
2017,04,09,07,47,3.20
2017,04,09,07,48,3.20
2017,04,09,07,49,3.20
2017,04,09,07,50,3.20
2017,04,09,07,51,3.30
2017,04,09,07,52,3.30
2017,04,09,07,53,3.30
2017,04,09,07,54,3.40
2017,04,09,07,55,3.40
2017,04,09,07,56,3.50
2017,04,09,07,57,3.50
2017,04,09,07,58,3.60
2017,04,09,07,59,3.60
2017,04,09,08,00,3.60
2017,04,09,08,01,3.70
2017,04,09,08,02,3.70
2017,04,09,08,03,3.70
2017,04,09,08,04,3.80
2017,04,09,08,05,3.80
2017,04,09,08,06,3.80
2017,04,09,08,07,3.90
2017,04,09,08,08,3.90
2017,04,09,08,09,3.90
2017,04,09,08,10,4.00
2017,04,09,08,11,4.10
2017,04,09,08,12,4.10
2017,04,09,08,13,4.10
2017,04,09,08,14,4.20
2017,04,09,08,15,4.20
2017,04,09,08,16,4.30
2017,04,09,08,17,4.30
2017,04,09,08,18,4.40
2017,04,09,08,19,4.40
2017,04,09,08,20,4.40
2017,04,09,08,21,4.50
2017,04,09,08,22,4.50
2017,04,09,08,23,4.60
2017,04,09,08,24,4.60
2017,04,09,08,25,4.60
2017,04,09,08,26,4.70
2017,04,09,08,27,4.70
2017,04,09,08,28,4.80
2017,04,09,08,29,4.80
2017,04,09,08,30,4.80
2017,04,09,08,31,4.90
2017,04,09,08,32,4.90
2017,04,09,08,33,5.00
2017,04,09,08,34,5.00
2017,04,09,08,35,5.00
2017,04,09,08,36,5.10
2017,04,09,08,37,5.10
2017,04,09,08,38,5.10
2017,04,09,08,39,5.10
2017,04,09,08,40,5.20
2017,04,09,08,41,5.20
2017,04,09,08,42,5.20
2017,04,09,08,43,5.20
2017,04,09,08,44,5.20
2017,04,09,08,45,5.30
2017,04,09,08,46,5.30
2017,04,09,08,47,5.30
2017,04,09,08,48,5.30
2017,04,09,08,49,5.40
2017,04,09,08,50,5.40
2017,04,09,08,51,5.40
2017,04,09,08,52,5.50
2017,04,09,08,53,5.50
2017,04,09,08,54,5.50
2017,04,09,08,55,5.60
2017,04,09,08,56,5.60
2017,04,09,08,57,5.60
2017,04,09,08,58,5.60
2017,04,09,08,59,5.70
2017,04,09,09,00,5.70
2017,04,09,09,01,5.70
2017,04,09,09,02,5.70
2017,04,09,09,03,5.70
2017,04,09,09,04,5.70
2017,04,09,09,05,5.70
2017,04,09,09,06,5.80
2017,04,09,09,07,5.80
2017,04,09,09,08,5.80
2017,04,09,09,09,5.80
2017,04,09,09,10,5.80
2017,04,09,09,11,5.90
2017,04,09,09,12,5.90
2017,04,09,09,13,5.90
2017,04,09,09,14,5.90
2017,04,09,09,15,5.90
2017,04,09,09,16,5.90
2017,04,09,09,17,5.90
2017,04,09,09,18,5.90
2017,04,09,09,19,6.00
2017,04,09,09,20,6.00
2017,04,09,09,21,6.00
2017,04,09,09,22,6.10
2017,04,09,09,23,6.10
2017,04,09,09,24,6.10
2017,04,09,09,25,6.10
2017,04,09,09,26,6.10
2017,04,09,09,27,6.10
2017,04,09,09,28,6.20
2017,04,09,09,29,6.20
2017,04,09,09,30,6.20
2017,04,09,09,31,6.20
2017,04,09,09,32,6.20
2017,04,09,09,33,6.30
2017,04,09,09,34,6.30
2017,04,09,09,35,6.20
2017,04,09,09,36,6.30
2017,04,09,09,37,6.30
2017,04,09,09,38,6.30
2017,04,09,09,39,6.30
2017,04,09,09,40,6.30
2017,04,09,09,41,6.30
2017,04,09,09,42,6.30
2017,04,09,09,43,6.30
2017,04,09,09,44,6.40
2017,04,09,09,45,6.40
2017,04,09,09,46,6.40
2017,04,09,09,47,6.50
2017,04,09,09,48,6.50
2017,04,09,09,49,6.50
2017,04,09,09,50,6.50
2017,04,09,09,51,6.60
2017,04,09,09,52,6.70
2017,04,09,09,53,6.70
2017,04,09,09,54,6.70
2017,04,09,09,55,6.70
2017,04,09,09,56,6.80
2017,04,09,09,57,6.80
2017,04,09,09,58,6.80
2017,04,09,09,59,6.80
2017,04,09,10,00,6.80
2017,04,09,10,01,6.70
2017,04,09,10,02,6.70
2017,04,09,10,03,6.70
2017,04,09,10,04,6.70
2017,04,09,10,05,6.70
2017,04,09,10,06,6.60
2017,04,09,10,07,6.60
2017,04,09,10,08,6.60
2017,04,09,10,09,6.60
2017,04,09,10,10,6.60
2017,04,09,10,11,6.60
2017,04,09,10,12,6.60
2017,04,09,10,13,6.60
2017,04,09,10,14,6.70
2017,04,09,10,15,6.70
2017,04,09,10,16,6.70
2017,04,09,10,17,6.80
2017,04,09,10,18,6.80
2017,04,09,10,19,6.90
2017,04,09,10,20,6.90
2017,04,09,10,21,7.00
2017,04,09,10,22,7.00
2017,04,09,10,23,7.10
2017,04,09,10,24,7.10
2017,04,09,10,25,7.20
2017,04,09,10,26,7.30
2017,04,09,10,27,7.40
2017,04,09,10,28,7.50
2017,04,09,10,29,7.60
2017,04,09,10,30,7.60
2017,04,09,10,31,7.70
2017,04,09,10,32,7.70
2017,04,09,10,33,7.70
2017,04,09,10,34,7.70
2017,04,09,10,35,7.70
2017,04,09,10,36,7.70
2017,04,09,10,37,7.70
2017,04,09,10,38,7.70
2017,04,09,10,39,7.60
2017,04,09,10,40,7.60
2017,04,09,10,41,7.60
2017,04,09,10,42,7.50
2017,04,09,10,43,7.50
2017,04,09,10,44,7.50
2017,04,09,10,45,7.60
2017,04,09,10,46,7.60
2017,04,09,10,47,7.60
2017,04,09,10,48,7.60
2017,04,09,10,49,7.70
2017,04,09,10,50,7.70
2017,04,09,10,51,7.70
2017,04,09,10,52,7.70
2017,04,09,10,53,7.70
2017,04,09,10,54,7.70
2017,04,09,10,55,7.80
2017,04,09,10,56,7.90
2017,04,09,10,57,8.00
2017,04,09,10,58,8.10
2017,04,09,10,59,8.10
2017,04,09,11,00,8.20
2017,04,09,11,01,8.20
2017,04,09,11,02,8.30
2017,04,09,11,03,8.30
2017,04,09,11,04,8.40
2017,04,09,11,05,8.50
2017,04,09,11,06,8.60
2017,04,09,11,07,8.60
2017,04,09,11,08,8.60
2017,04,09,11,09,8.70
2017,04,09,11,10,8.70
2017,04,09,11,11,8.70
2017,04,09,11,12,8.70
2017,04,09,11,13,8.80
2017,04,09,11,14,8.80
2017,04,09,11,15,8.80
2017,04,09,11,16,8.80
2017,04,09,11,17,8.90
2017,04,09,11,18,8.90
2017,04,09,11,19,8.90
2017,04,09,11,20,8.90
2017,04,09,11,21,8.90
2017,04,09,11,22,9.00
2017,04,09,11,23,9.00
2017,04,09,11,24,9.00
2017,04,09,11,25,9.10
2017,04,09,11,26,9.10
2017,04,09,11,27,9.00
2017,04,09,11,28,9.00
2017,04,09,11,29,9.00
2017,04,09,11,30,8.90
2017,04,09,11,31,8.90
2017,04,09,11,32,8.90
2017,04,09,11,33,8.90
2017,04,09,11,34,8.80
2017,04,09,11,35,8.80
2017,04,09,11,36,8.90
2017,04,09,11,37,8.90
2017,04,09,11,38,8.90
2017,04,09,11,39,8.90
2017,04,09,11,40,8.90
2017,04,09,11,41,8.90
2017,04,09,11,42,8.90
2017,04,09,11,43,8.90
2017,04,09,11,44,8.90
2017,04,09,11,45,8.90
2017,04,09,11,46,8.90
2017,04,09,11,47,8.90
2017,04,09,11,48,8.90
2017,04,09,11,49,8.90
2017,04,09,11,50,8.90
2017,04,09,11,51,9.00
2017,04,09,11,52,9.10
2017,04,09,11,53,9.10
2017,04,09,11,54,9.10
2017,04,09,11,55,9.10
2017,04,09,11,56,9.20
2017,04,09,11,57,9.20
2017,04,09,11,58,9.20
2017,04,09,11,59,9.10
2017,04,09,12,00,9.10
2017,04,09,12,01,9.10
2017,04,09,12,02,9.10
2017,04,09,12,03,9.10
2017,04,09,12,04,9.10
2017,04,09,12,05,9.10
2017,04,09,12,06,9.10
2017,04,09,12,07,9.10
2017,04,09,12,08,9.10
2017,04,09,12,09,9.00
2017,04,09,12,10,9.10
2017,04,09,12,11,9.10
2017,04,09,12,12,9.10
2017,04,09,12,13,9.20
2017,04,09,12,14,9.20
2017,04,09,12,15,9.20
2017,04,09,12,16,9.20
2017,04,09,12,17,9.30
2017,04,09,12,18,9.30
2017,04,09,12,19,9.30
2017,04,09,12,20,9.40
2017,04,09,12,21,9.40
2017,04,09,12,22,9.40
2017,04,09,12,23,9.40
2017,04,09,12,24,9.40
2017,04,09,12,25,9.40
2017,04,09,12,26,9.30
2017,04,09,12,27,9.30
2017,04,09,12,28,9.30
2017,04,09,12,29,9.30
2017,04,09,12,30,9.30
2017,04,09,12,31,9.30
2017,04,09,12,32,9.30
2017,04,09,12,33,9.30
2017,04,09,12,34,9.30
2017,04,09,12,35,9.20
2017,04,09,12,36,9.20
2017,04,09,12,37,9.20
2017,04,09,12,38,9.20
2017,04,09,12,39,9.20
2017,04,09,12,40,9.20
2017,04,09,12,41,9.20
2017,04,09,12,42,9.30
2017,04,09,12,43,9.40
2017,04,09,12,44,9.40
2017,04,09,12,45,9.50
2017,04,09,12,46,9.50
2017,04,09,12,47,9.60
2017,04,09,12,48,9.50
2017,04,09,12,49,9.50
2017,04,09,12,50,9.50
2017,04,09,12,51,9.40
2017,04,09,12,52,9.40
2017,04,09,12,53,9.30
2017,04,09,12,54,9.30
2017,04,09,12,55,9.30
2017,04,09,12,56,9.20
2017,04,09,12,57,9.20
2017,04,09,12,58,9.20
2017,04,09,12,59,9.20
2017,04,09,13,00,9.30
2017,04,09,13,01,9.30
2017,04,09,13,02,9.30
2017,04,09,13,03,9.30
2017,04,09,13,04,9.30
2017,04,09,13,05,9.30
2017,04,09,13,06,9.30
2017,04,09,13,07,9.20
2017,04,09,13,08,9.20
2017,04,09,13,09,9.30
2017,04,09,13,10,9.30
2017,04,09,13,11,9.30
2017,04,09,13,12,9.30
2017,04,09,13,13,9.30
2017,04,09,13,14,9.30
2017,04,09,13,15,9.30
2017,04,09,13,16,9.30
2017,04,09,13,17,9.30
2017,04,09,13,18,9.30
2017,04,09,13,19,9.30
2017,04,09,13,20,9.20
2017,04,09,13,21,9.20
2017,04,09,13,22,9.20
2017,04,09,13,23,9.30
2017,04,09,13,24,9.30
2017,04,09,13,25,9.30
2017,04,09,13,26,9.30
2017,04,09,13,27,9.30
2017,04,09,13,28,9.30
2017,04,09,13,29,9.40
2017,04,09,13,30,9.40
2017,04,09,13,31,9.50
2017,04,09,13,32,9.60
2017,04,09,13,33,9.70
2017,04,09,13,34,9.70
2017,04,09,13,35,9.80
2017,04,09,13,36,9.90
2017,04,09,13,37,10.00
2017,04,09,13,38,10.00
2017,04,09,13,39,10.10
2017,04,09,13,40,10.10
2017,04,09,13,41,10.10
2017,04,09,13,42,10.10
2017,04,09,13,43,10.20
2017,04,09,13,44,10.20
2017,04,09,13,45,10.20
2017,04,09,13,46,10.20
2017,04,09,13,47,10.30
2017,04,09,13,48,10.30
2017,04,09,13,49,10.30
2017,04,09,13,50,10.30
2017,04,09,13,51,10.30
2017,04,09,13,52,10.30
2017,04,09,13,53,10.30
2017,04,09,13,54,10.30
2017,04,09,13,55,10.30
2017,04,09,13,56,10.30
2017,04,09,13,57,10.30
2017,04,09,13,58,10.30
2017,04,09,13,59,10.30
2017,04,09,14,00,10.30
2017,04,09,14,01,10.40
2017,04,09,14,02,10.40
2017,04,09,14,03,10.40
2017,04,09,14,04,10.30
2017,04,09,14,05,10.30
2017,04,09,14,06,10.30
2017,04,09,14,07,10.30
2017,04,09,14,08,10.30
2017,04,09,14,09,10.30
2017,04,09,14,10,10.30
2017,04,09,14,11,10.30
2017,04,09,14,12,10.30
2017,04,09,14,13,10.30
2017,04,09,14,14,10.30
2017,04,09,14,15,10.30
2017,04,09,14,16,10.30
2017,04,09,14,17,10.30
2017,04,09,14,18,10.30
2017,04,09,14,19,10.20
2017,04,09,14,20,10.20
2017,04,09,14,21,10.20
2017,04,09,14,22,10.10
2017,04,09,14,23,10.10
2017,04,09,14,24,10.10
2017,04,09,14,25,10.10
2017,04,09,14,26,10.10
2017,04,09,14,27,10.20
2017,04,09,14,28,10.20
2017,04,09,14,29,10.30
2017,04,09,14,30,10.30
2017,04,09,14,31,10.30
2017,04,09,14,32,10.30
2017,04,09,14,33,10.30
2017,04,09,14,34,10.30
2017,04,09,14,35,10.20
2017,04,09,14,36,10.20
2017,04,09,14,37,10.20
2017,04,09,14,38,10.20
2017,04,09,14,39,10.20
2017,04,09,14,40,10.10
2017,04,09,14,41,10.20
2017,04,09,14,42,10.20
2017,04,09,14,43,10.20
2017,04,09,14,44,10.30
2017,04,09,14,45,10.30
2017,04,09,14,46,10.30
2017,04,09,14,47,10.40
2017,04,09,14,48,10.40
2017,04,09,14,49,10.40
2017,04,09,14,50,10.40
2017,04,09,14,51,10.30
2017,04,09,14,52,10.30
2017,04,09,14,53,10.30
2017,04,09,14,54,10.30
2017,04,09,14,55,10.40
2017,04,09,14,56,10.30
2017,04,09,14,57,10.30
2017,04,09,14,58,10.30
2017,04,09,14,59,10.30
2017,04,09,15,00,10.30
2017,04,09,15,01,10.30
2017,04,09,15,02,10.30
2017,04,09,15,03,10.20
2017,04,09,15,04,10.20
2017,04,09,15,05,10.20
2017,04,09,15,06,10.30
2017,04,09,15,07,10.30
2017,04,09,15,08,10.30
2017,04,09,15,09,10.30
2017,04,09,15,10,10.30
2017,04,09,15,11,10.20
2017,04,09,15,12,10.30
2017,04,09,15,13,10.30
2017,04,09,15,14,10.30
2017,04,09,15,15,10.30
2017,04,09,15,16,10.30
2017,04,09,15,17,10.30
2017,04,09,15,18,10.30
2017,04,09,15,19,10.30
2017,04,09,15,20,10.40
2017,04,09,15,21,10.40
2017,04,09,15,22,10.40
2017,04,09,15,23,10.40
2017,04,09,15,24,10.40
2017,04,09,15,25,10.40
2017,04,09,15,26,10.50
2017,04,09,15,27,10.50
2017,04,09,15,28,10.50
2017,04,09,15,29,10.50
2017,04,09,15,30,10.50
2017,04,09,15,31,10.50
2017,04,09,15,32,10.50
2017,04,09,15,33,10.50
2017,04,09,15,34,10.50
2017,04,09,15,35,10.50
2017,04,09,15,36,10.50
2017,04,09,15,37,10.50
2017,04,09,15,38,10.60
2017,04,09,15,39,10.60
2017,04,09,15,40,10.60
2017,04,09,15,41,10.60
2017,04,09,15,42,10.60
2017,04,09,15,43,10.60
2017,04,09,15,44,10.60
2017,04,09,15,45,10.60
2017,04,09,15,46,10.70
2017,04,09,15,47,10.70
2017,04,09,15,48,10.80
2017,04,09,15,49,10.80
2017,04,09,15,50,10.90
2017,04,09,15,51,10.90
2017,04,09,15,52,10.90
2017,04,09,15,53,11.00
2017,04,09,15,54,11.00
2017,04,09,15,55,11.10
2017,04,09,15,56,11.10
2017,04,09,15,57,11.10
2017,04,09,15,58,11.20
2017,04,09,15,59,11.20
2017,04,09,16,00,11.20
2017,04,09,16,01,11.20
2017,04,09,16,02,11.20
2017,04,09,16,03,11.20
2017,04,09,16,04,11.10
2017,04,09,16,05,11.10
2017,04,09,16,06,11.00
2017,04,09,16,07,11.00
2017,04,09,16,08,11.00
2017,04,09,16,09,10.90
2017,04,09,16,10,10.90
2017,04,09,16,11,10.80
2017,04,09,16,12,10.80
2017,04,09,16,13,10.80
2017,04,09,16,14,10.70
2017,04,09,16,15,10.70
2017,04,09,16,16,10.70
2017,04,09,16,17,10.70
2017,04,09,16,18,10.80
2017,04,09,16,19,10.80
2017,04,09,16,20,10.80
2017,04,09,16,21,10.80
2017,04,09,16,22,10.80
2017,04,09,16,23,10.80
2017,04,09,16,24,10.80
2017,04,09,16,25,10.80
2017,04,09,16,26,10.90
2017,04,09,16,27,10.90
2017,04,09,16,28,10.90
2017,04,09,16,29,10.90
2017,04,09,16,30,10.90
2017,04,09,16,31,10.90
2017,04,09,16,32,10.90
2017,04,09,16,33,10.90
2017,04,09,16,34,10.80
2017,04,09,16,35,10.80
2017,04,09,16,36,10.80
2017,04,09,16,37,10.80
2017,04,09,16,38,10.80
2017,04,09,16,39,10.80
2017,04,09,16,40,10.80
2017,04,09,16,41,10.80
2017,04,09,16,42,10.80
2017,04,09,16,43,10.70
2017,04,09,16,44,10.70
2017,04,09,16,45,10.70
2017,04,09,16,46,10.70
2017,04,09,16,47,10.70
2017,04,09,16,48,10.70
2017,04,09,16,49,10.70
2017,04,09,16,50,10.70
2017,04,09,16,51,10.70
2017,04,09,16,52,10.70
2017,04,09,16,53,10.70
2017,04,09,16,54,10.70
2017,04,09,16,55,10.80
2017,04,09,16,56,10.80
2017,04,09,16,57,10.80
2017,04,09,16,58,10.80
2017,04,09,16,59,10.80
2017,04,09,17,00,10.80
2017,04,09,17,01,10.90
2017,04,09,17,02,10.90
2017,04,09,17,03,10.90
2017,04,09,17,04,10.90
2017,04,09,17,05,10.80
2017,04,09,17,06,10.80
2017,04,09,17,07,10.80
2017,04,09,17,08,10.80
2017,04,09,17,09,10.80
2017,04,09,17,10,10.80
2017,04,09,17,11,10.80
2017,04,09,17,12,10.80
2017,04,09,17,13,10.80
2017,04,09,17,14,10.80
2017,04,09,17,15,10.80
2017,04,09,17,16,10.80
2017,04,09,17,17,10.80
2017,04,09,17,18,10.70
2017,04,09,17,19,10.70
2017,04,09,17,20,10.70
2017,04,09,17,21,10.70
2017,04,09,17,22,10.70
2017,04,09,17,23,10.70
2017,04,09,17,24,10.70
2017,04,09,17,25,10.70
2017,04,09,17,26,10.70
2017,04,09,17,27,10.70
2017,04,09,17,28,10.70
2017,04,09,17,29,10.70
2017,04,09,17,30,10.70
2017,04,09,17,31,10.70
2017,04,09,17,32,10.70
2017,04,09,17,33,10.70
2017,04,09,17,34,10.70
2017,04,09,17,35,10.60
2017,04,09,17,36,10.60
2017,04,09,17,37,10.60
2017,04,09,17,38,10.60
2017,04,09,17,39,10.60
2017,04,09,17,40,10.60
2017,04,09,17,41,10.60
2017,04,09,17,42,10.60
2017,04,09,17,43,10.50
2017,04,09,17,44,10.50
2017,04,09,17,45,10.50
2017,04,09,17,46,10.50
2017,04,09,17,47,10.50
2017,04,09,17,48,10.50
2017,04,09,17,49,10.50
2017,04,09,17,50,10.60
2017,04,09,17,51,10.60
2017,04,09,17,52,10.60
2017,04,09,17,53,10.60
2017,04,09,17,54,10.50